This demonstration page uses our WeatherBlox Daily Observations layout. Learn more.

Left ArrowRight Arrow

Hourly Observations for August 13, 2022

Temp ( °F °C ) Dew Point ( °F °C ) Humidity (%) Winds ( mph kmh ) Pressure ( in mb ) Visibility ( mi km ) Precip ( " mm )
12:56 am 00:56 Clear 78 25.5 62 16.6 58 58 S 10 17 29.96 1015 10 16 0.00 0.00
1:56 am 01:56 Clear 72 22.1 63 17.4 75 75 E 3 6 30.01 1016 10 16 0.00 0.00
2:56 am 02:56 Clear 73 22.5 64 17.8 75 75 E 3 6 30.00 1016 10 16 0.00 0.00
3:56 am 03:56 Clear 72 22.3 65 18.3 78 78 Calm 30.00 1016 10 16 0.00 0.00
4:56 am 04:56 Clear 73 22.5 64 18 76 76 SE 5 7 30.00 1016 10 16 0.00 0.00
5:56 am 05:56 Clear 73 22.6 65 18.3 77 77 SSE 5 7 30.00 1016 10 16 0.00 0.00
6:56 am 06:56 Sunny 73 22.5 64 18 76 76 SSE 5 7 30.00 1016 9 14 0.00 0.00
7:56 am 07:56 Sunny 74 23.4 63 17.4 69 69 S 6 9 29.99 1016 10 16 0.00 0.00
8:56 am 08:56 Sunny 75 24 63 17.2 66 66 SSE 7 11 29.99 1016 10 16 0.00 0.00
9:56 am 09:56 Sunny 80 26.9 65 18.2 59 59 W 3 6 29.99 1016 10 16 0.00 0.00
11:56 am 11:56 Sunny 85 29.5 61 15.9 44 44 WNW 10 17 29.99 1016 10 16 0.00 0.00
12:56 pm 12:56 Sunny 85 29.7 60 15.8 43 43 W 8 13 29.98 1015 10 16 0.00 0.00
1:56 pm 13:56 Sunny 87 30.7 63 17 44 44 W 8 13 29.98 1015 10 16 0.00 0.00
2:56 pm 14:56 Mostly Cloudy 89 31.5 71 21.6 56 56 N 12 19 29.98 1015 10 16 0.00 0.00
3:56 pm 15:56 Mostly Cloudy 90 32.2 69 20.4 50 50 N 9 15 29.98 1015 10 16 0.00 0.00
4:56 pm 16:56 Mostly Cloudy 88 31.2 70 21 55 55 NE 10 17 29.96 1015 10 16 0.00 0.00
5:56 pm 17:56 Mostly Cloudy 85 29.2 69 20.3 59 59 N 14 22 29.98 1015 10 16 0.00 0.00
6:56 pm 18:56 Mostly Sunny 82 27.8 68 19.8 62 62 N 15 24 29.99 1016 10 16 0.00 0.00
7:56 pm 19:56 Mostly Cloudy 79 26.2 66 18.8 64 64 N 10 17 29.99 1016 10 16 0.00 0.00
8:56 pm 20:56 Mostly Cloudy 78 25.4 65 18.6 66 66 NNE 5 7 29.99 1016 10 16 0.00 0.00
9:56 pm 21:56 Mostly Cloudy 77 25 66 18.7 68 68 NNE 8 13 30.00 1016 10 16 0.00 0.00
10:56 pm 22:56 Mostly Cloudy 76 24.2 65 18.1 69 69 NE 5 7 29.98 1015 10 16 0.00 0.00
11:56 pm 23:56 Mostly Clear 73 23 64 17.7 72 72 NE 9 15 30.02 1017 10 16 0.00 0.00

Powered by AerisWeather